TimeCST,TemperatureF,Dew PointF,Humidity,Sea Level PressureIn,VisibilityMPH,Wind Direction,Wind SpeedMPH,Gust SpeedMPH,PrecipitationIn,Events,Conditions,WindDirDegrees,DateUTC
12:58 AM,39.9,34.2,80,29.81,10.0,South,5.8,-,N/A,,Overcast,170,2013-11-16 06:58:00
1:58 AM,40.8,34.5,78,29.81,10.0,South,8.1,-,N/A,,Overcast,170,2013-11-16 07:58:00
2:58 AM,41.0,34.7,78,29.78,10.0,SSE,5.8,-,N/A,,Partly Cloudy,160,2013-11-16 08:58:00
3:58 AM,39.2,34.7,84,29.78,10.0,SE,8.1,-,N/A,,Clear,140,2013-11-16 09:58:00
4:58 AM,37.9,35.4,91,29.77,10.0,Variable,3.5,-,N/A,,Mostly Cloudy,0,2013-11-16 10:58:00
5:58 AM,37.2,35.8,95,29.73,10.0,ESE,5.8,-,N/A,,Scattered Clouds,110,2013-11-16 11:58:00
6:08 AM,37.4,35.6,93,29.70,10.0,SE,6.9,-,N/A,,Mostly Cloudy,130,2013-11-16 12:08:00
6:43 AM,39.2,37.4,93,29.69,10.0,SE,10.4,-,N/A,,Overcast,140,2013-11-16 12:43:00
6:58 AM,40.1,38.7,95,29.71,10.0,SE,12.7,20.7,N/A,,Overcast,140,2013-11-16 12:58:00
7:04 AM,41.0,39.2,93,29.69,10.0,SSE,13.8,20.7,N/A,,Overcast,150,2013-11-16 13:04:00
7:29 AM,41.0,41.0,100,29.69,10.0,South,10.4,19.6,N/A,,Overcast,170,2013-11-16 13:29:00
7:58 AM,41.0,41.0,100,29.72,5.0,SSE,9.2,18.4,N/A,,Overcast,160,2013-11-16 13:58:00
8:21 AM,41.0,41.0,100,29.69,2.0,Variable,5.8,-,N/A,,Light Drizzle,0,2013-11-16 14:21:00
8:52 AM,41.0,41.0,100,29.68,1.5,SE,5.8,-,N/A,,Light Drizzle,130,2013-11-16 14:52:00
8:58 AM,41.0,41.0,100,29.70,1.5,SE,9.2,-,N/A,,Light Drizzle,130,2013-11-16 14:58:00
9:58 AM,41.0,41.0,100,29.68,1.5,SE,10.4,-,N/A,,Light Drizzle,140,2013-11-16 15:58:00
10:58 AM,42.8,42.8,100,29.64,1.5,ESE,8.1,-,N/A,,Light Drizzle,120,2013-11-16 16:58:00
11:58 AM,44.6,44.6,100,29.59,2.0,SE,9.2,-,N/A,,Light Drizzle,130,2013-11-16 17:58:00
12:58 PM,48.2,48.2,100,29.55,2.0,SE,6.9,-,N/A,,Light Drizzle,140,2013-11-16 18:58:00
1:58 PM,50.0,50.0,100,29.50,3.0,SSE,10.4,-,N/A,,Light Drizzle,150,2013-11-16 19:58:00
2:58 PM,51.8,51.8,100,29.46,3.0,SSE,6.9,-,N/A,Rain,Light Rain,160,2013-11-16 20:58:00
3:47 PM,53.6,53.6,100,29.40,6.0,SSE,10.4,19.6,N/A,Rain,Light Rain,150,2013-11-16 21:47:00
3:58 PM,52.9,52.9,100,29.41,3.0,SSE,9.2,-,0.00,Rain,Light Rain,150,2013-11-16 21:58:00
4:03 PM,53.6,53.6,100,29.39,2.5,SSE,11.5,17.3,N/A,Rain,Light Rain,160,2013-11-16 22:03:00
4:08 PM,53.6,53.6,100,29.39,3.0,SSE,9.2,-,N/A,Rain,Light Rain,150,2013-11-16 22:08:00
4:13 PM,53.6,53.6,100,29.38,2.5,SSE,6.9,-,N/A,Rain,Light Rain,160,2013-11-16 22:13:00
4:14 PM,53.6,53.6,100,29.38,2.5,South,5.8,-,N/A,Rain,Rain,170,2013-11-16 22:14:00
4:19 PM,53.6,53.6,100,29.38,2.5,SSE,6.9,-,N/A,Rain,Light Rain,160,2013-11-16 22:19:00
4:24 PM,53.6,53.6,100,29.38,4.0,SSE,6.9,-,N/A,Rain,Light Rain,160,2013-11-16 22:24:00
4:26 PM,53.6,53.6,100,29.38,5.0,SSE,6.9,-,N/A,Rain,Light Rain,160,2013-11-16 22:26:00
4:31 PM,53.6,53.6,100,29.39,6.0,Variable,5.8,-,N/A,Rain,Light Rain,0,2013-11-16 22:31:00
4:46 PM,53.6,53.6,100,29.40,2.0,SSE,15.0,-,N/A,Rain,Heavy Rain,160,2013-11-16 22:46:00
4:51 PM,53.6,53.6,100,29.39,2.5,SSE,17.3,-,N/A,Rain,Rain,160,2013-11-16 22:51:00
4:53 PM,53.6,53.6,100,29.38,2.5,SSE,16.1,-,N/A,Rain,Rain,150,2013-11-16 22:53:00
4:58 PM,53.6,53.6,100,29.39,3.0,SSE,19.6,26.5,0.00,Rain,Rain,160,2013-11-16 22:58:00
5:03 PM,53.6,53.6,100,29.38,4.0,SSE,13.8,26.5,N/A,Rain,Rain,160,2013-11-16 23:03:00
5:08 PM,53.6,53.6,100,29.38,5.0,SSE,13.8,26.5,N/A,Rain,Light Rain,150,2013-11-16 23:08:00
5:58 PM,54.7,54.7,100,29.37,10.0,South,11.5,-,0.00,Rain,Light Rain,170,2013-11-16 23:58:00
6:00 PM,55.4,55.4,100,29.35,10.0,South,11.5,-,N/A,,Mostly Cloudy,170,2013-11-17 00:00:00
6:58 PM,54.3,54.3,100,29.37,10.0,South,12.7,-,0.00,,Mostly Cloudy,180,2013-11-17 00:58:00
7:44 PM,55.4,55.4,100,29.36,10.0,South,16.1,-,N/A,,Light Drizzle,190,2013-11-17 01:44:00
7:58 PM,57.2,57.0,99,29.39,10.0,South,11.5,23.0,0.00,Rain,Light Rain,180,2013-11-17 01:58:00
8:02 PM,57.2,57.2,100,29.36,10.0,South,13.8,-,N/A,,Scattered Clouds,180,2013-11-17 02:02:00
8:58 PM,58.8,57.4,95,29.39,10.0,SSW,13.8,-,0.00,,Clear,200,2013-11-17 02:58:00
9:58 PM,59.5,57.4,93,29.40,10.0,SSW,12.7,-,N/A,,Partly Cloudy,210,2013-11-17 03:58:00
10:13 PM,59.0,57.2,94,29.38,9.0,SW,12.7,20.7,N/A,Rain,Light Rain,220,2013-11-17 04:13:00
10:23 PM,59.0,59.0,100,29.39,5.0,SW,9.2,-,N/A,Rain,Light Rain,230,2013-11-17 04:23:00
10:33 PM,59.0,59.0,100,29.39,9.0,SW,9.2,20.7,N/A,,Light Drizzle,220,2013-11-17 04:33:00
10:37 PM,59.0,57.2,94,29.39,10.0,SSW,11.5,20.7,N/A,,Mostly Cloudy,210,2013-11-17 04:37:00
10:58 PM,57.4,53.2,86,29.42,10.0,SW,10.4,-,0.00,,Mostly Cloudy,220,2013-11-17 04:58:00
11:58 PM,53.4,52.3,96,29.43,10.0,SSW,5.8,-,N/A,,Clear,200,2013-11-17 05:58:00